| time (UTC) | temp F | wind direction | speed knots | gust knots | rain 1hr in | rain 24hr in | rain mn in | humidity % | barometer mb |
| 20260507020042 | 69 | 319 | 4.3 | 11.3 | 0.00 | 0.00 | 0.00 | 82 | 1012.0 |
| 20260507014521 | 69 | 41 | 4.3 | 10.4 | 0.00 | 0.00 | 0.00 | 82 | 1011.4 |
| 20260507013022 | 70 | 5 | 4.3 | 11.3 | 0.00 | 0.00 | 0.00 | 82 | 1011.4 |
| 20260507011523 | 71 | 329 | 2.6 | 10.4 | 0.00 | 0.00 | 0.00 | 82 | 1011.2 |
| 20260507010014 | 71 | 20 | 1.7 | 7.0 | 0.00 | 0.00 | 0.00 | 84 | 1011.1 |
| 20260507004512 | 72 | 308 | 4.3 | 8.7 | 0.00 | 0.00 | 0.00 | 83 | 1010.7 |
| 20260507003010 | 72 | 314 | 4.3 | 12.2 | 0.00 | 0.00 | 0.00 | 83 | 1010.4 |
| 20260507001525 | 73 | 17 | 5.2 | 13.0 | 0.00 | 0.00 | 0.00 | 83 | 1010.1 |
| 20260507000003 | 74 | 72 | 4.3 | 11.3 | 0.00 | 0.00 | 0.00 | 82 | 1009.8 |
| 20260506234503 | 77 | 348 | 5.2 | 14.8 | 0.00 | 0.00 | 0.00 | 79 | 1009.7 |
| 20260506233102 | 85 | 338 | 0.0 | 0.0 | 0.00 | 0.00 | 0.00 | 79 | 1009.1 |
| 20260506231607 | 85 | 292 | 0.0 | 0.0 | 0.00 | 0.00 | 0.00 | 79 | 1008.8 |
| 20260506230113 | 85 | 248 | 0.0 | 0.0 | 0.00 | 0.00 | 0.00 | 80 | 1008.6 |
| 20260506224557 | 85 | 248 | 0.0 | 0.0 | 0.00 | 0.00 | 0.00 | 81 | 1008.6 |
| 20260506223103 | 84 | 248 | 0.0 | 2.6 | 0.00 | 0.00 | 0.00 | 83 | 1008.5 |
| 20260506221610 | 84 | 219 | 1.7 | 3.5 | 0.00 | 0.00 | 0.00 | 81 | 1008.6 |
| 20260506220056 | 85 | 246 | 2.6 | 5.2 | 0.00 | 0.00 | 0.00 | 80 | 1008.5 |
| 20260506214556 | 84 | 238 | 3.5 | 7.8 | 0.00 | 0.00 | 0.00 | 81 | 1008.4 |
| 20260506213055 | 84 | 161 | 2.6 | 7.0 | 0.00 | 0.00 | 0.00 | 82 | 1008.6 |
| 20260506211554 | 85 | 179 | 3.5 | 6.1 | 0.00 | 0.00 | 0.00 | 82 | 1008.7 |
| 20260506210056 | 84 | 185 | 1.7 | 6.1 | 0.00 | 0.00 | 0.00 | 85 | 1008.8 |
| 20260506204550 | 83 | 225 | 2.6 | 8.7 | 0.00 | 0.00 | 0.00 | 84 | 1008.8 |
| 20260506203045 | 82 | 182 | 3.5 | 9.6 | 0.00 | 0.00 | 0.00 | 86 | 1009.0 |
| 20260506201544 | 82 | 208 | 4.3 | 7.0 | 0.00 | 0.00 | 0.00 | 87 | 1009.3 |
| 20260506200042 | 82 | 194 | 6.1 | 9.6 | 0.00 | 0.00 | 0.00 | 85 | 1009.4 |
| 20260506194541 | 82 | 180 | 6.1 | 9.6 | 0.00 | 0.00 | 0.00 | 86 | 1009.4 |
| 20260506193043 | 81 | 180 | 3.5 | 7.0 | 0.00 | 0.00 | 0.00 | 88 | 1009.6 |
| 20260506191537 | 81 | 140 | 4.3 | 7.8 | 0.00 | 0.00 | 0.00 | 88 | 1009.6 |
| 20260506190035 | 81 | 131 | 5.2 | 7.0 | 0.00 | 0.00 | 0.00 | 89 | 1010.0 |
| 20260506184537 | 81 | 169 | 2.6 | 3.5 | 0.00 | 0.00 | 0.00 | 88 | 1010.0 |
| 20260506183030 | 80 | 150 | 0.9 | 7.0 | 0.00 | 0.00 | 0.00 | 90 | 1010.2 |
| 20260506181536 | 79 | 80 | 2.6 | 6.1 | 0.00 | 0.00 | 0.00 | 93 | 1010.5 |
| 20260506180026 | 79 | 67 | 0.9 | 3.5 | 0.00 | 0.00 | 0.00 | 92 | 1010.7 |
| 20260506174523 | 78 | 83 | 4.3 | 6.1 | 0.00 | 0.00 | 0.00 | 94 | 1010.9 |
| 20260506173023 | 78 | 92 | 2.6 | 7.0 | 0.00 | 0.00 | 0.00 | 94 | 1011.2 |
| 20260506171527 | 78 | 93 | 2.6 | 6.1 | 0.00 | 0.00 | 0.00 | 94 | 1011.3 |
| 20260506170027 | 78 | 126 | 4.3 | 7.8 | 0.00 | 0.00 | 0.00 | 93 | 1011.4 |
| 20260506164541 | 78 | 121 | 2.6 | 6.1 | 0.00 | 0.00 | 0.00 | 92 | 1011.3 |
| 20260506163022 | 79 | 125 | 4.3 | 7.8 | 0.00 | 0.00 | 0.00 | 92 | 1011.2 |
| 20260506161522 | 78 | 124 | 7.0 | 8.7 | 0.00 | 0.00 | 0.00 | 93 | 1011.0 |
| 20260506160017 | 78 | 119 | 6.1 | 9.6 | 0.00 | 0.00 | 0.00 | 92 | 1010.7 |
| 20260506154515 | 78 | 133 | 3.5 | 7.8 | 0.00 | 0.00 | 0.00 | 93 | 1010.8 |
| 20260506153013 | 78 | 147 | 3.5 | 7.0 | 0.00 | 0.00 | 0.00 | 93 | 1010.8 |
| 20260506151514 | 77 | 124 | 3.5 | 7.0 | 0.00 | 0.00 | 0.00 | 94 | 1010.3 |
| 20260506150008 | 77 | 132 | 7.0 | 9.6 | 0.00 | 0.00 | 0.00 | 94 | 1010.2 |
| 20260506144511 | 77 | 130 | 4.3 | 8.7 | 0.00 | 0.00 | 0.00 | 95 | 1010.2 |
| 20260506143006 | 76 | 125 | 6.1 | 13.0 | 0.00 | 0.00 | 0.00 | 96 | 1009.9 |
| 20260506141511 | 76 | 140 | 6.1 | 10.4 | 0.00 | 0.00 | 0.00 | 97 | 1009.8 |
| 20260506140002 | 75 | 121 | 7.0 | 8.7 | 0.00 | 0.00 | 0.00 | 98 | 1009.7 |
| 20260506134502 | 75 | 121 | 6.1 | 8.7 | 0.00 | 0.00 | 0.00 | 98 | 1009.8 |
| 20260506133003 | 75 | 123 | 5.2 | 9.6 | 0.00 | 0.00 | 0.00 | 98 | 1009.9 |
| 20260506131502 | 75 | 117 | 5.2 | 8.7 | 0.00 | 0.00 | 0.00 | 99 | 1009.9 |
| 20260506130000 | 75 | 118 | 4.3 | 8.7 | 0.00 | 0.00 | 0.00 | 99 | 1009.9 |
| 20260506124601 | 74 | 119 | 6.1 | 9.6 | 0.00 | 0.00 | 0.00 | 99 | 1009.8 |
| 20260506123100 | 74 | 133 | 4.3 | 7.8 | 0.00 | 0.00 | 0.00 | 99 | 1009.7 |
| 20260506121601 | 74 | 148 | 5.2 | 8.7 | 0.00 | 0.00 | 0.00 | 99 | 1009.6 |
| 20260506120110 | 74 | 136 | 4.3 | 7.8 | 0.00 | 0.00 | 0.00 | 98 | 1009.4 |
| 20260506114559 | 74 | 151 | 4.3 | 7.0 | 0.00 | 0.00 | 0.00 | 98 | 1009.4 |
| 20260506113058 | 74 | 153 | 3.5 | 7.0 | 0.00 | 0.00 | 0.00 | 98 | 1009.3 |
| 20260506111557 | 74 | 138 | 4.3 | 7.8 | 0.00 | 0.00 | 0.00 | 98 | 1009.0 |
| 20260506110112 | 74 | 152 | 5.2 | 8.7 | 0.00 | 0.00 | 0.00 | 98 | 1008.9 |
| 20260506104611 | 74 | 156 | 6.1 | 9.6 | 0.00 | 0.00 | 0.00 | 99 | 1008.9 |
| 20260506103052 | 74 | 150 | 6.1 | 8.7 | 0.00 | 0.00 | 0.00 | 99 | 1008.7 |
| 20260506101552 | 74 | 153 | 5.2 | 7.8 | 0.00 | 0.00 | 0.00 | 98 | 1008.8 |
| 20260506100058 | 74 | 170 | 3.5 | 6.1 | 0.00 | 0.00 | 0.00 | 98 | 1008.8 |
| 20260506094555 | 74 | 142 | 2.6 | 6.1 | 0.00 | 0.00 | 0.00 | 98 | 1008.8 |
| 20260506093046 | 74 | 148 | 4.3 | 7.0 | 0.00 | 0.00 | 0.00 | 98 | 1008.8 |
| 20260506091545 | 74 | 144 | 4.3 | 7.0 | 0.00 | 0.00 | 0.00 | 98 | 1008.7 |
| 20260506090043 | 75 | 144 | 3.5 | 6.1 | 0.00 | 0.00 | 0.00 | 98 | 1008.8 |
| 20260506084613 | 75 | 138 | 0.9 | 3.5 | 0.00 | 0.00 | 0.00 | 98 | 1009.1 |
| 20260506083043 | 75 | 138 | 0.9 | 6.1 | 0.00 | 0.00 | 0.00 | 98 | 1009.0 |
| 20260506081551 | 75 | 153 | 2.6 | 5.2 | 0.00 | 0.00 | 0.00 | 98 | 1008.8 |
| 20260506073037 | 75 | 192 | 5.2 | 9.6 | 0.00 | 0.00 | 0.00 | 97 | 1009.1 |
| 20260506071536 | 75 | 159 | 5.2 | 8.7 | 0.00 | 0.00 | 0.00 | 97 | 1009.4 |
| 20260506061529 | 75 | 170 | 5.2 | 10.4 | 0.00 | 0.00 | 0.00 | 96 | 1009.7 |
| 20260506044521 | 76 | 152 | 3.5 | 7.0 | 0.00 | 0.00 | 0.00 | 95 | 1009.8 |
| 20260506043020 | 76 | 143 | 2.6 | 5.2 | 0.00 | 0.00 | 0.00 | 95 | 1009.9 |
| 20260506041519 | 76 | 150 | 2.6 | 7.8 | 0.00 | 0.00 | 0.00 | 94 | 1009.8 |
| 20260506040019 | 76 | 144 | 6.1 | 10.4 | 0.00 | 0.00 | 0.00 | 94 | 1009.6 |
| 20260506034520 | 76 | 152 | 4.3 | 9.6 | 0.00 | 0.00 | 0.00 | 94 | 1009.6 |
| 20260506033018 | 76 | 135 | 5.2 | 8.7 | 0.00 | 0.00 | 0.00 | 94 | 1009.3 |
| 20260506031518 | 76 | 135 | 4.3 | 10.4 | 0.00 | 0.00 | 0.00 | 93 | 1008.9 |
| 20260506030017 | 76 | 170 | 7.0 | 13.0 | 0.00 | 0.00 | 0.00 | 93 | 1008.6 |
| 20260506024517 | 76 | 157 | 5.2 | 12.2 | 0.00 | 0.00 | 0.00 | 91 | 1008.6 |
| 20260506023031 | 77 | 170 | 6.1 | 9.6 | 0.00 | 0.00 | 0.00 | 91 | 1008.6 |
| 20260506021531 | 77 | 164 | 6.1 | 12.2 | 0.00 | 0.00 | 0.00 | 91 | 1008.5 |